Location: Alafon
(8.4500°N, 4.2333°E)
Time: 20:42:41
(UTC+00:00)

Vanguard 2 - Pass Details

Date: 08 August 2021
Orbit: 553 x 2937 km, 32.9° (Epoch: 27 September)

Event Time Altitude Azimuth Distance (km) Brightness Sun altitude
Rises 10:38:57 0° 281° (WNW) 4,055 11.1 71.4°
Reaches altitude 10° 10:41:35 10° 272° (W) 3,369 10.8 72.0°
Maximum altitude 10:49:38 37° 208° (SSW) 2,616 10.6 73.7°
Drops below altitude 10° 11:02:03 10° 148° (SSE) 5,162 11.9 76.3°
Sets 11:07:17 0° 140° (SE) 6,462 12.3 77.4°
